Classement



SCRATCH - SENIOR - MIXTE - MASTER - JEUNE - FEMININE - VAE


Cl. Dossard Equipe Catégorie Distance Temps Dernier passage
1 2 TRUNET CLÉMENT/LETURCQ GEOFFREY SENIOR 83.6km 04:05:48 27/09/20 à 16:36:18
2 22 DASSONVILLE BENOIT/DESETTE GUILLAUME SENIOR 83.6km 04:09:28 27/09/20 à 16:39:58
3 37 DEJARDIN CORENTIN/HARLEZ MAXIME SENIOR 83.6km 04:11:00 27/09/20 à 16:41:30
4 95 FERON RUDY/LEJEUNE REMI SENIOR 83.6km 04:13:06 27/09/20 à 16:43:36
5 152 BELLARD ROMAIN/BELLARD THOMAS SENIOR 83.6km 04:20:30 27/09/20 à 16:51:00
6 147 COLASSE BENJAMIN/PELTIER LORIS SENIOR 83.6km 04:21:16 27/09/20 à 16:51:46
7 17 HEDDE CHARLE/MARCQ YOURI SENIOR 83.6km 04:25:49 27/09/20 à 16:56:19
8 11 GRAS MARC/CARON ANTOINE SENIOR 76km 04:05:06 27/09/20 à 16:35:36
9 10 HENNEQUART MARTIN/DE PAEPE AURÉLIEN SENIOR 76km 04:07:24 27/09/20 à 16:37:54
10 91 MENTRE ETIENNE/TRISTRAM JESSY SENIOR 76km 04:10:00 27/09/20 à 16:40:30
11 9 CHALAS JEAN PIERRE/CAZE ALBAN SENIOR 76km 04:16:15 27/09/20 à 16:46:45
12 40 LETELLIER REMI/VIFQUIN GAETAN SENIOR 76km 04:16:15 27/09/20 à 16:46:45
13 163 COLLIER FRANCK/COLLIER THÉOTIME SENIOR 76km 04:17:33 27/09/20 à 16:48:03
14 88 BREVIERE ALEXANDRE/CORMAN SÉBASTIEN SENIOR 76km 04:20:05 27/09/20 à 16:50:35
15 23 BEAUCARNE VICTOR/VAN HERPE FLORENT SENIOR 76km 04:21:14 27/09/20 à 16:51:44
16 43 BLANPAIN KEVIN/BUTTIAUX SEVERIN SENIOR 76km 04:21:46 27/09/20 à 16:52:16
17 125 BENDJEBBOUR SAMIR/ABRASSART SASCHA SENIOR 76km 04:22:40 27/09/20 à 16:53:10
18 54 COURNILLOUX PAUL/LONCKE SÉBASTIEN SENIOR 76km 04:23:38 27/09/20 à 16:54:08
19 26 CANONNE STEVEN/LANDAS MARTY SENIOR 76km 04:24:11 27/09/20 à 16:54:41
20 109 LEVIELLE QUENTIN/THOREZ NICOLAS SENIOR 76km 04:26:33 27/09/20 à 16:57:03
21 39 RIVART THIERRY/RIVART ADRIEN SENIOR 76km 04:27:10 27/09/20 à 16:57:40
22 104 MEKIL AURELIEN/LEFEBVRE MARC-ANTOINE SENIOR 76km 04:30:08 27/09/20 à 17:00:38
23 1 DAME JORDY/DAME DYLAN SENIOR 68.4km 03:24:19 27/09/20 à 15:54:49
24 139 GUYOT FABIEN/QUIQUET CHRISTOPHE SENIOR 68.4km 04:03:55 27/09/20 à 16:34:25
25 142 LEO VANDEKERCKHOVE/BONNET JOHNNY SENIOR 68.4km 04:07:20 27/09/20 à 16:37:50
26 20 NIEL FLORIAN/DUPAS XAVIER SENIOR 68.4km 04:07:53 27/09/20 à 16:38:23
27 158 DELOBEL OLIVIER/CHOMBART NICOLAS SENIOR 68.4km 04:10:38 27/09/20 à 16:41:08
28 156 ANTOINE DUFFROY/PLACE NICOLAS SENIOR 68.4km 04:11:44 27/09/20 à 16:42:14
29 110 CRUPPE KYLIAN/DEVIENNE ARNAUD SENIOR 68.4km 04:12:13 27/09/20 à 16:42:43
30 134 GUYOT MICKAEL/DELETTRÉ ANTHONY SENIOR 68.4km 04:13:00 27/09/20 à 16:43:30
31 160 BOURGAIN LUDOVIC/MARIN NICOLAS SENIOR 68.4km 04:14:27 27/09/20 à 16:44:57
32 123 ANSQUIN CORENTIN/HULOT MARC-ANTOINE SENIOR 68.4km 04:15:59 27/09/20 à 16:46:29
33 90 BERNARD MICHAEL/VANTHUYNE STEPHAN SENIOR 68.4km 04:16:44 27/09/20 à 16:47:14
34 13 ROUSSELLE NICOLAS/LEPLANQUOIS GAUTHIER SENIOR 68.4km 04:18:58 27/09/20 à 16:49:28
35 141 BERQUE PIERRE-YVES/LAFUENTE BAPTISTE SENIOR 68.4km 04:19:19 27/09/20 à 16:49:49
36 130 CAPON SEBASTIEN/DEPAEPE GREGORY SENIOR 68.4km 04:19:43 27/09/20 à 16:50:13
37 149 VIVOT LUDOVIC/GAMANT SÉBASTIEN SENIOR 68.4km 04:21:36 27/09/20 à 16:52:06
38 56 BOUREL JONATHAN/DEJEHET FRANÇOIS XAVIER SENIOR 68.4km 04:32:59 27/09/20 à 17:03:29
39 98 CARLIER HUGO/SARENS SYLVAIN SENIOR 68.4km 04:33:51 27/09/20 à 17:04:21
40 29 DISSAUX BENOIT/CORDONNIER MATHEO SENIOR 60.8km 04:02:11 27/09/20 à 16:32:41
41 15 PREVOT GREG/MOLMY ARNAUD SENIOR 60.8km 04:03:29 27/09/20 à 16:33:59
42 146 BOONE GEOFFREY/BOONE BIS GEOFFREY BIS SENIOR 60.8km 04:04:11 27/09/20 à 16:34:41
43 87 POCHOLLE BENOIT/TOURET HERVE SENIOR 60.8km 04:05:01 27/09/20 à 16:35:31
44 153 LEBON JEAN-PHILIPPE/DUCAMP JÉRÉMY SENIOR 60.8km 04:08:34 27/09/20 à 16:39:04
45 82 LAMAURY SÉBASTIEN/PRUVOST CLÉMENT SENIOR 60.8km 04:08:50 27/09/20 à 16:39:20
46 18 BOCQUILLON JÉRÔME/FONTAINE BENJAMIN SENIOR 60.8km 04:09:31 27/09/20 à 16:40:01
47 65 CORDONNIER CAMILLE/LECRIVAIN SÉBASTIEN SENIOR 60.8km 04:13:14 27/09/20 à 16:43:44
48 126 ANCEAUX NICOLAS/KULIFAJ ANTOINE SENIOR 60.8km 04:13:19 27/09/20 à 16:43:49
49 145 KOSMALA MAXIME/MIOT JEROME SENIOR 60.8km 04:13:59 27/09/20 à 16:44:29
50 151 GARDEBIEN LIONEL/BIETTE BENOIT SENIOR 60.8km 04:15:04 27/09/20 à 16:45:34
51 111 GUILLE FOURNIER / CHARLES YOHANN SENIOR 60.8km 04:22:36 27/09/20 à 16:53:06
52 25 JACQUES KEVIN/LEDOUX RÉMY SENIOR 60.8km 04:23:54 27/09/20 à 16:54:24
53 58 DEWAVRIN FLORENT/SAMIER FREDERIC SENIOR 60.8km 04:27:44 27/09/20 à 16:58:14
54 124 MOUCHART AXEL/MOUCHART MATHEO SENIOR 60.8km 04:31:49 27/09/20 à 17:02:19
55 116 VANDERMEERSCH SAMME/STAUTE BODHI SENIOR 60.8km 04:34:48 27/09/20 à 17:05:18
56 137 KRASZKIEWICZ LAURENT/TAKSZ TONY SENIOR 60.8km 04:35:20 27/09/20 à 17:05:50
57 47 HERBOMEL CEDRIC/DELEBECQ ARNAUD SENIOR 60.8km 04:36:33 27/09/20 à 17:07:03
58 93 VAILLIERE SEBASTIEN/BEHAGUE YOANN SENIOR 60.8km 04:40:18 27/09/20 à 17:10:48
59 73 BOULIEZ FRANÇOIS/JONES ALLAN SENIOR 60.8km 04:41:00 27/09/20 à 17:11:30
60 21 VAN-CLEEMPUT MARTIAL/KIRKET QUENTIN SENIOR 53.2km 03:26:38 27/09/20 à 15:57:08
61 85 BLAZART FLORIAN/DUMORTIER YOHAN SENIOR 53.2km 03:48:59 27/09/20 à 16:19:29
62 76 CARON GEORGES/GOMEZ FABIAN SENIOR 53.2km 03:52:22 27/09/20 à 16:22:52
63 157 MAILLARD MORGAN/EVRARD ETIENNE SENIOR 53.2km 04:10:57 27/09/20 à 16:41:27
64 64 DEWEIRELD MATHIEU/LAVOISY KEVIN SENIOR 53.2km 04:13:58 27/09/20 à 16:44:28
65 132 BERNARD SÉBASTIEN/GUISE FLORENT SENIOR 53.2km 04:15:35 27/09/20 à 16:46:05
66 12 KAMINSKI MICHEL/BEER POTES ADRIEN SENIOR 53.2km 04:18:29 27/09/20 à 16:48:59
67 89 FOLENS REMY/TENEUR THIBAUT SENIOR 53.2km 04:19:30 27/09/20 à 16:50:00
68 69 PAQUE JOHAN/MAQUINGHEN THIBAUD SENIOR 53.2km 04:20:18 27/09/20 à 16:50:48
69 72 FARDEL DAVID/DOUAY RODRIGUE SENIOR 53.2km 04:32:10 27/09/20 à 17:02:40
70 74 FABRE LUCAS/LEGRIS SYLVAIN SENIOR 53.2km 04:32:47 27/09/20 à 17:03:17
71 150 PARENT THIÉFAINE/LEFEBVRE JESSY SENIOR 45.6km 03:48:13 27/09/20 à 16:18:43
72 66 ZIMOCH BENJAMIN/CHAVET MATTHIEU SENIOR 45.6km 03:51:37 27/09/20 à 16:22:07
73 51 NEUTRE BERTRAND/BACHELET MICKAEL SENIOR 45.6km 03:58:04 27/09/20 à 16:28:34
74 115 DE NEEF FLORENT/MEKIL CLÉMENT SENIOR 45.6km 04:10:17 27/09/20 à 16:40:47
75 107 PIETTE PASCAL BIS/PIETTE PASCAL SENIOR 45.6km 04:13:01 27/09/20 à 16:43:31
76 34 RINGAUD ROMAIN/VASSEUR LUDO SENIOR 38km 03:32:57 27/09/20 à 16:03:27
77 48 DEMANDRILLE CEDRIC/DEVIENNE RAPHAEL SENIOR 38km 03:43:48 27/09/20 à 16:14:18
78 38 PELLEGRINI CHARLES/BUHOT DAVID SENIOR 38km 03:47:22 27/09/20 à 16:17:52
79 118 SOUILLART WILFRIED/CORDIER DAVID SENIOR 38km 04:07:38 27/09/20 à 16:38:08
80 162 GRYNIEWICZ SÉBASTIEN/HOARAU JULIEN SENIOR 38km 04:09:15 27/09/20 à 16:39:45
81 75 BATEL ARNAUD/LHERMITTE FRÉDÉRIC SENIOR 30.4km 04:07:45 27/09/20 à 16:38:15
82 60 MASSET MORGAN/MASSET MORGAN SENIOR 22.8km 01:54:04 27/09/20 à 14:24:34


RETOUR RECHERCHE DOSSARD